Printer-friendly version
Follow the MPC on Twitter Follow the MPC on Facebook The MPC blog
Minor Planet Center

MPEC 2010-B57 : 2010 AG79

The following Minor Planet Electronic Circular may be linked-to from your own Web pages, but must not otherwise be redistributed electronically.

A form allowing access to any MPEC is at the bottom of this page.


Read MPEC 2010-B56 Read MPEC 2010-B58


M.P.E.C. 2010-B57                                Issued 2010 Jan. 28, 15:23 UT

     The Minor Planet Electronic Circulars contain information on unusual
         minor planets and routine data on comets.  They are published
   on behalf of Commission 20 of the International Astronomical Union by the
          Minor Planet Center, Smithsonian Astrophysical Observatory,
                          Cambridge, MA 02138, U.S.A.

             Prepared using the Tamkin Foundation Computer Network

                              MPC@CFA.HARVARD.EDU
          URL http://www.cfa.harvard.edu/iau/mpc.html  ISSN 1523-6714

                                   2010 AG79

Observations:
     K10A79G* S2010 01 13.94270 00 38 51.76 +42 03 54.0                 EB057C51
     K10A79G  s2010 01 13.94270 1 + 5021.2370 + 1249.1475 + 4567.0173   EB057C51
     K10A79G  S2010 01 14.20743 00 39 22.00 +42 14 39.4                 EB057C51
     K10A79G  s2010 01 14.20743 1 + 4985.7158 + 1255.4207 + 4603.5275   EB057C51
     K10A79G  S2010 01 14.33974 00 39 37.23 +42 20 02.2                 EB057C51
     K10A79G  s2010 01 14.33974 1 + 4992.3611 + 1271.8436 + 4592.0020   EB057C51
     K10A79G  S2010 01 14.60448 00 40 08.08 +42 30 43.5                 EB057C51
     K10A79G  s2010 01 14.60448 1 + 4957.4565 + 1278.1285 + 4628.1012   EB057C51
     K10A79G  S2010 01 14.73678 00 40 23.31 +42 36 03.1                 EB057C51
     K10A79G  s2010 01 14.73678 1 + 4964.2299 + 1294.7428 + 4616.1035   EB057C51
     K10A79G  S2010 01 14.80300 00 40 30.86 +42 38 45.4                 EB057C51
     K10A79G  s2010 01 14.80300 1 + 4942.4885 + 1288.9302 + 4640.9070   EB057C51
     K10A79G  S2010 01 14.86921 00 40 38.84 +42 41 24.9                 EB057C51
     K10A79G  s2010 01 14.86921 1 + 4920.7426 + 1283.0244 + 4665.6364   EB057C51
     K10A79G  S2010 01 15.00152 00 40 54.18 +42 46 42.3                 EB057C51
     K10A79G  s2010 01 15.00152 1 + 4927.4928 + 1300.0696 + 4653.7308   EB057C51
     K10A79G  S2010 01 15.13395 00 41 10.07 +42 52 01.0                 EB057C51
     K10A79G  s2010 01 15.13395 1 + 4884.4951 + 1288.3274 + 4701.6228   EB057C51
     K10A79G  S2010 01 15.26625 00 41 25.84 +42 57 17.1                 EB057C51
     K10A79G  s2010 01 15.26625 1 + 4891.3468 + 1304.6777 + 4690.0985   EB057C51
     K10A79G  S2010 01 15.33247 00 41 33.71 +42 59 57.5                 EB057C51
     K10A79G  s2010 01 15.33247 1 + 4869.4739 + 1298.4362 + 4714.5905   EB057C51
     K10A79G  S2010 01 15.86182 00 42 37.07 +43 20 56.5                 EB057C51
     K10A79G  s2010 01 15.86182 1 + 4846.9824 + 1336.4626 + 4727.3131   EB057C51
     K10A79G  S2010 01 16.25886 00 43 25.48 +43 36 33.1                 EB057C51
     K10A79G  s2010 01 16.25886 1 + 4817.2004 + 1357.2274 + 4751.4486   EB057C51
     K10A79G  S2010 01 16.39116 00 43 41.47 +43 41 43.2                 EB057C51
     K10A79G  s2010 01 16.39116 1 + 4823.7456 + 1373.9364 + 4740.3138   EB057C51
     K10A79G 2C2010 01 20.21420000 51 59.003+46 06 57.02         22.0 R EB057568
     K10A79G 2C2010 01 20.21498700 51 59.109+46 06 58.74         21.7 R EB057568
     K10A79G 2C2010 01 21.21583000 54 18.843+46 43 30.22         21.9 R EB057568
     K10A79G 2C2010 01 21.21680200 54 18.970+46 43 32.29         21.9 R EB057568
     K10A79G 2C2010 01 27.24292901 09 47.173+50 11 11.60         22.1 R EB057568

Observer details:
568 Mauna Kea.  Observers A. Draginda, M. Micheli, G. T. Elliott.  Measurer
    D. J. Tholen.  2.24-m University of Hawaii reflector, 3.6-m
    Canada-France-Hawaii Telescope.
C51 WISE.  Measurers A. Mainzer, E. Wright, J. Bauer, T. Grav, J. Dailey,
    J. Masiero, R. Cutri, R. McMillan, R. Walker.
    http://wise.ssl.berkeley.edu/mission_sci.html

Orbital elements:
2010 AG79                                                Earth MOID = 0.2382 AU
Epoch 2010 Jan. 4.0 TT = JDT 2455200.5                  MPC
M   3.66604              (2000.0)            P               Q
n   0.22274929     Peri.   13.63019     +0.46193929     -0.78299212
a   2.6952052      Node    50.69525     +0.75489282     +0.10055594
e   0.5483241      Incl.   32.57202     +0.46556302     +0.61385001
P   4.42           H   20.4           G   0.15           U   8
Residuals in seconds of arc
100113 C51  0.6+  0.4-    100115 C51  2.1-  0.1+    100120 568  0.1-  0.0
100114 C51  0.1+  1.2-    100115 C51  0.7+  0.9+    100120 568  0.1-  0.0
100114 C51  0.1+  0.4-    100115 C51  1.7+  0.1-    100121 568  0.1+  0.0
100114 C51  2.0+  1.1-    100115 C51  1.6+  2.0+    100121 568  0.0   0.0
100114 C51  0.1-  1.3-    100115 C51  0.0   0.8+    100127 568  0.0   0.0
100114 C51  2.2-  1.2+    100116 C51  1.0+  0.6-
100114 C51  0.2+  1.2+    100116 C51  1.6-  1.8-

Ephemeris:
2010 AG79                a,e,i = 2.70, 0.55, 33                  q = 1.2174
Date    TT    R. A. (2000) Decl.     Delta      r     Elong.  Phase     V
2010 01 24    01 01.15   +48 21.9    0.805    1.287    91.4    49.9    22.3
2010 02 03    01 30.33   +53 39.8    0.887    1.327    90.1    48.0    22.6
2010 02 13    02 07.75   +58 01.8    0.971    1.375    89.2    45.9    22.8
2010 02 23    02 54.39   +61 22.2    1.057    1.428    88.4    43.8    23.0

Gareth V. Williams           (C) Copyright 2010 MPC           M.P.E.C. 2010-B57

Read MPEC 2010-B56 Read MPEC 2010-B58


MPEC number:

Enter an MPEC number in one of the following forms:

  • 1997-B01 (the full form)
  • J97B01 (the packed version of the full form)
  • B01 (the abbreviated form)

Valid HTML 4.01!